Weather History for Praha / Ruzyne, Czech Republic

Change the Weather History Date:

Saturday, August 31, 2013

  Actual Average Record
Temperature  
Mean Temperature 66 °F -  
Max Temperature 76 °F 66 °F - ()
Min Temperature 55 °F 47 °F - ()
Growing Degree Days 16 (Base 50)    
Moisture  
Dew Point 52 °F    
Average Humidity 64    
Maximum Humidity 82    
Minimum Humidity 34    
Precipitation  
Precipitation 0.00 in 0.05 in - ()
Sea Level Pressure  
Sea Level Pressure 30.08 in    
Wind  
Wind Speed 10 mph ()    
Max Wind Speed 16 mph    
Max Gust Speed 22 mph    
Visibility 8.4 miles    
Events Rain    
T = Trace of Precipitation, MM = Missing Value Source: Averaged Metar Reports

Daily Weather History Graph

Daily Weather History Graph

Search for Another Location

Airport:

Trip Planner

Search our weather history database for the weather conditions in past years. The results will help you decide how hot, cold, wet, or windy it might be!

Date:

Astronomy

Aug. 31, 2013 Rise Set
Actual Time 6:16 AM CEST 7:49 PM CEST
Civil Twilight 5:42 AM CEST 8:22 PM CEST
Nautical Twilight 5:00 AM CEST 9:04 PM CEST
Astronomical Twilight 4:15 AM CEST 9:49 PM CEST
Moon 1:12 AM CEST (8/31) 4:51 PM CEST (8/31)
Length of Visible Light 14h 40m
Length of Day
13h 32m
Waning Crescent, 23% of the Moon is Illuminated
Aug 31
Waning Crescent
Sep 5
New
Sep 12
First Quarter
Sep 19
Full
Sep 27
Last Quarter

Hourly Weather History & Observations

Time (CEST) Temp. Dew Point Humidity Pressure Visibility Wind Dir Wind Speed Gust Speed Precip Events Conditions
12:00 AM 57.2 °F 50.0 °F 77% 30.12 in - SSW 9.2 mph - N/A   Clear
12:30 AM 55.4 °F 50.0 °F 82% 30.09 in - SSW 9.2 mph - N/A   Clear
1:00 AM 57.2 °F 50.0 °F 77% 30.09 in - SSW 9.2 mph - N/A   Clear
1:30 AM 55.4 °F 50.0 °F 82% 30.09 in - SW 9.2 mph - N/A   Clear
2:00 AM 57 °F 51 °F 73% 30.11 in 19 mi SW 8.9 mph - -   Partly Cloudy
2:00 AM 57.2 °F 50.0 °F 77% 30.09 in - SW 10.4 mph - N/A   Clear
2:30 AM 57.2 °F 50.0 °F 77% 30.09 in - SW 11.5 mph - N/A   Clear
3:00 AM 57.2 °F 50.0 °F 77% 30.09 in - SW 10.4 mph - N/A   Clear
3:30 AM 55.4 °F 50.0 °F 82% 30.09 in - SW 11.5 mph - N/A   Clear
4:00 AM 55.4 °F 50.0 °F 82% 30.09 in - SW 11.5 mph - N/A   Clear
4:30 AM 55.4 °F 50.0 °F 82% 30.09 in - SW 11.5 mph - N/A   Clear
5:00 AM 55.4 °F 50.0 °F 82% 30.09 in - SW 11.5 mph - N/A   Clear
5:30 AM 55.4 °F 50.0 °F 82% 30.09 in - SW 11.5 mph - N/A   Clear
6:00 AM 55.4 °F 50.0 °F 82% 30.09 in - SW 11.5 mph - N/A   Clear
6:30 AM 55.4 °F 50.0 °F 82% 30.09 in - SW 10.4 mph - N/A   Clear
7:00 AM 55.4 °F 50.0 °F 82% 30.09 in - SW 12.7 mph - N/A   Clear
7:30 AM 59.0 °F 50.0 °F 72% 30.09 in - SW 11.5 mph - N/A   Clear
8:00 AM 59.0 °F 50.0 °F 72% 30.09 in - SW 11.5 mph - N/A   Clear
8:23 AM 62.6 °F 51.8 °F 68% 30.09 in - SW 11.5 mph - N/A   Clear
8:30 AM 62.6 °F 51.8 °F 68% 30.09 in - SW 11.5 mph - N/A   Clear
9:00 AM 62.6 °F 50.0 °F 63% 30.09 in - SW 12.7 mph - N/A   Clear
9:30 AM 62.6 °F 51.8 °F 68% 30.09 in - SW 11.5 mph - N/A   Clear
9:51 AM 66.2 °F 51.8 °F 60% 30.09 in - SW 11.5 mph - N/A   Clear
10:00 AM 66.2 °F 53.6 °F 64% 30.09 in - SW 11.5 mph - N/A   Clear
10:30 AM 68.0 °F 53.6 °F 60% 30.09 in - SW 11.5 mph - N/A   Clear
11:00 AM 69.8 °F 51.8 °F 53% 30.09 in - WSW 11.5 mph - N/A   Clear
11:30 AM 71.6 °F 51.8 °F 50% 30.09 in - West 11.5 mph - N/A   Clear
12:00 PM 73.4 °F 51.8 °F 47% 30.09 in 6.2 mi West 10.4 mph - N/A   Partly Cloudy
12:30 PM 73.4 °F 50.0 °F 44% 30.09 in 6.2 mi WSW 10.4 mph 21.9 mph N/A   Partly Cloudy
1:00 PM 73.4 °F 50.0 °F 44% 30.09 in 6.2 mi West 11.5 mph - N/A   Partly Cloudy
1:30 PM 75.2 °F 50.0 °F 41% 30.09 in 6.2 mi WSW 12.7 mph - N/A   Partly Cloudy
2:00 PM 74 °F 51 °F 34% 30.04 in 19 mi SW 11.2 mph - -   Mostly Cloudy
2:00 PM 73.4 °F 51.8 °F 47% 30.06 in - WSW 11.5 mph - N/A   Clear
2:30 PM 71.6 °F 51.8 °F 50% 30.06 in 6.2 mi WSW 10.4 mph - N/A   Scattered Clouds
2:40 PM 69.8 °F 51.8 °F 53% 30.06 in 6.2 mi West 11.5 mph - N/A Rain Light Rain Showers
3:00 PM 68.0 °F 53.6 °F 60% 30.06 in 6.2 mi West 9.2 mph - N/A   Partly Cloudy
3:30 PM 71.6 °F 51.8 °F 50% 30.06 in - WSW 5.8 mph - N/A   Clear
3:54 PM 75.2 °F 50.0 °F 41% 30.06 in - WSW 9.2 mph - N/A   Clear
4:00 PM 75.2 °F 50.0 °F 41% 30.06 in - WSW 13.8 mph - N/A   Clear
4:30 PM 75.2 °F 51.8 °F 44% 30.06 in - West 16.1 mph - N/A   Clear
5:00 PM 71.6 °F 53.6 °F 53% 30.06 in - NW 9.2 mph - N/A   Clear
5:30 PM 71.6 °F 53.6 °F 53% 30.06 in - NW 9.2 mph - N/A   Clear
6:00 PM 71.6 °F 51.8 °F 50% 30.06 in - WNW 10.4 mph - N/A   Clear
6:30 PM 69.8 °F 51.8 °F 53% 30.06 in - NW 8.1 mph - N/A   Clear
7:00 PM 69.8 °F 51.8 °F 53% 30.06 in - WNW 8.1 mph - N/A   Clear
7:30 PM 68.0 °F 51.8 °F 56% 30.06 in - WNW 6.9 mph - N/A   Clear
8:00 PM 65 °F 53 °F 55% 30.06 in 12 mi West 6.7 mph - -   Partly Cloudy
8:00 PM 64.4 °F 51.8 °F 64% 30.06 in - West 5.8 mph - N/A   Clear
8:30 PM 64.4 °F 53.6 °F 68% 30.06 in - West 6.9 mph - N/A   Clear
9:00 PM 64.4 °F 53.6 °F 68% 30.09 in - West 6.9 mph - N/A   Clear
9:30 PM 64.4 °F 53.6 °F 68% 30.09 in - WSW 8.1 mph - N/A   Clear
10:00 PM 64.4 °F 53.6 °F 68% 30.09 in 6.2 mi West 11.5 mph - N/A Rain Light Rain
10:30 PM 60.8 °F 55.4 °F 82% 30.09 in 6.2 mi NNW 15.0 mph - N/A Rain Light Rain
11:00 PM 60.8 °F 55.4 °F 82% 30.12 in 6.2 mi NW 8.1 mph - N/A Rain Light Rain
11:30 PM 60.8 °F 55.4 °F 82% 30.12 in 6.2 mi WNW 6.9 mph - N/A Rain Light Rain